STARLINK-33978, 63832

Orbit data source: Space-Track

STARLINK-33978, 63832 is a payload satellite owned by SpaceX/Seattle (US) in LEO that was launched on Sun, 04 May 2025 UTC via an FALCON 9 launch vehicle from the Air Force Eastern Test Range (AFETR). Payload-class satellites include a variety of spacecraft equipped with specific instruments for various scientific and technological missions. These include communications satellites like Starlink; space stations such as the ISS; scientific satellites like the Hubble; Earth observation satellites from companies like Planet Labs, Umbra, and HawkEye 360; GPS; miniature CubeSats for education and research; and military/defense satellites.

Loading next visibility...
Identifier
63832, 2025-092AE
Orbit
LEO
Last TLE update
15 hours ago
Origin
Manufacturer
SpaceX/Seattle
Mission
Operational spacecraft
Bus & Motor
STARLINK V2MO, Unknown motor
Mass
575 kg wet, ~530 kg dry
Launch date (UTC)
2025-05-04 (1 week ago)
Launch vehicle
FALCON 9
Launch site
Air Force Eastern Test Range (AFETR)
Object type
Payload
Rocket body
Debris
Shape & HBR
Unknown
Radar Cross Section
Medium (>0.1 m² and <1 m²)

Expand to show TLE details & history

TLE from 15 hours ago
0 STARLINK-33978
1 63832U 25092AE  25132.91668981 -.01072792  00000-0 -38451-2 0  9994
2 63832  43.0006  80.0460 0001635 256.2791  99.9087 15.90208038  2563
Epoch: 2025-05-12T22:00Z
Definitive object data (Epoch: 2025-05-12T22:00:01.999Z)
Latitude
-2.66206°
Longitude
-123.72695°
Altitude
302.041 km
Speed
7.728 km/s
True Right ascension
05h 08m 49s
True Declination
-2° 38' 42"
Sunlit
Object was in daylight at TLE epoch
Visualization TLE readout
Latitude
43.14598°
Longitude
-32.93267°
Altitude
310.281 km
Speed
7.727 km/s
Apparent Right ascension
10h 33m 14s
Apparent Declination
2° 51' 10"
Sunlit
Object is in daylight
Visualization observer readout
Local Sidereal Time
21:54:35
Azimuth
345.949° N
Elevation
-46.322°
Doppler factor
1
Orbital elements
Apogee altitude
304.79 km
Perigee altitude
302.605 km
Semi-major axis
6,681.835 km
Eccentricity
0.0001635
Inclination
43.0006°
RAAN
80.046°
Arg. of periapsis
256.2791°
True anomaly
99.92716°
Mean anomaly
99.9087°
Eccentric anomaly
99.91793°
Mean motion
3.97374 °/min
BSTAR
-0.0038451
Orbital period
90.59 mins
Loading maneuver chart data...
Loading SW <> Apogee altitude chart data...
Loading historical data...
Loading historical data...
Loading historical data...
Loading historical data...
Loading historical data...
Loading historical data...
Loading historical data...

STARLINK-33978 Visibility forecast

Observer location: undefined°, undefined°

Span
Click to sort rows by Start time (UTC) header in descending order
Start Az.
Max El. time (UTC)
Max El. Az.
Max El.
End time (UTC)
End Az.
4 mins2025-05-14 01:28:49.546Z282.087° WNW2025-05-14 01:30:49.546Z28.103° NE33.34°2025-05-14 01:32:49.546Z66.98° ENE
|